LNI695 WAEE-WAMG

Flight info

Callsign LNI695
Flight time 0h 51m
Altitude 24000
Route HALMO W61 MWB
Aircraft B739/M-SDE2E3FGHIRWXY/LB1

Departure

Time 2026-04-30 11:10
Airport Sultan Babullah Airport (WAEE)

Arrival

Time 2026-04-30 12:01
Airport Jalaluddin Airport (WAMG)
Time Latitude Longitude Altitude Speed Heading
2026-04-30 10:39 0.83413 127.37721 58 ft 0 kts 231°
2026-04-30 11:01 0.83414 127.37723 58 ft 0 kts 231°
2026-04-30 11:01 0.83422 127.37731 58 ft 2 kts 204°
2026-04-30 11:01 0.83437 127.37733 58 ft 2 kts 163°
2026-04-30 11:02 0.83445 127.37729 58 ft 0 kts 138°
2026-04-30 11:02 0.83450 127.37724 58 ft 0 kts 140°
2026-04-30 11:05 0.83441 127.37731 57 ft 4 kts 142°
2026-04-30 11:06 0.83407 127.37758 57 ft 7 kts 141°
2026-04-30 11:06 0.83388 127.37795 57 ft 4 kts 66°
2026-04-30 11:06 0.83406 127.37820 57 ft 0 kts 53°
2026-04-30 11:06 0.83427 127.37846 57 ft 13 kts 52°
2026-04-30 11:07 0.83436 127.37900 57 ft 8 kts 131°
2026-04-30 11:07 0.83369 127.37953 57 ft 17 kts 141°
2026-04-30 11:07 0.83239 127.38059 57 ft 30 kts 141°
2026-04-30 11:07 0.83038 127.38220 57 ft 43 kts 142°
2026-04-30 11:08 0.82777 127.38430 57 ft 52 kts 141°
2026-04-30 11:08 0.82437 127.38703 57 ft 33 kts 137°
2026-04-30 11:08 0.82390 127.38772 57 ft 12 kts 127°
2026-04-30 11:08 0.82367 127.38774 57 ft 1 kts 268°
2026-04-30 11:09 0.82373 127.38759 57 ft 4 kts 298°
2026-04-30 11:09 0.82416 127.38719 57 ft 23 kts 320°
2026-04-30 11:09 0.82773 127.38434 58 ft 104 kts 321°
2026-04-30 11:09 0.83515 127.37837 59 ft 169 kts 322°
2026-04-30 11:10 0.84512 127.37023 415 ft 193 kts 321°
2026-04-30 11:10 0.85601 127.36273 1208 ft 195 kts 340°
2026-04-30 11:10 0.86938 127.36015 1832 ft 203 kts 357°
2026-04-30 11:10 0.88410 127.35998 2116 ft 224 kts
2026-04-30 11:11 0.90032 127.36068 2500 ft 243 kts
2026-04-30 11:11 0.91714 127.36018 3208 ft 246 kts 357°
2026-04-30 11:11 0.93382 127.35912 3931 ft 249 kts 356°
2026-04-30 11:11 0.95162 127.35789 4654 ft 253 kts 356°
2026-04-30 11:12 0.96894 127.35604 5363 ft 256 kts 348°
2026-04-30 11:12 0.98574 127.34991 6056 ft 259 kts 328°
2026-04-30 11:12 0.99911 127.33830 6727 ft 262 kts 305°
2026-04-30 11:12 1.00678 127.32110 7048 ft 280 kts 280°
2026-04-30 11:13 1.00847 127.30194 7760 ft 282 kts 270°
2026-04-30 11:13 1.00812 127.28217 8389 ft 289 kts 268°
2026-04-30 11:13 1.00775 127.27103 8814 ft 290 kts 268°
2026-04-30 11:13 1.00719 127.25093 9548 ft 294 kts 269°
2026-04-30 11:14 1.00682 127.23045 10274 ft 298 kts 269°
2026-04-30 11:14 1.00656 127.20911 10450 ft 322 kts 269°
2026-04-30 11:14 1.00635 127.18587 10705 ft 343 kts 269°
2026-04-30 11:14 1.00622 127.16178 11345 ft 350 kts 269°
2026-04-30 11:15 1.00653 127.12927 12336 ft 356 kts 271°
2026-04-30 11:15 1.00687 127.11272 12843 ft 358 kts 271°
2026-04-30 11:15 1.00743 127.08798 13591 ft 362 kts 271°
2026-04-30 11:15 1.00800 127.06261 14354 ft 366 kts 271°
2026-04-30 11:16 1.00856 127.03740 15107 ft 369 kts 270°
2026-04-30 11:16 1.00909 127.01152 15846 ft 374 kts 270°
2026-04-30 11:16 1.00957 126.98551 16559 ft 378 kts 270°
2026-04-30 11:16 1.01000 126.95940 17269 ft 381 kts 270°
2026-04-30 11:17 1.01036 126.93272 17945 ft 385 kts 270°
2026-04-30 11:17 1.01068 126.90604 18602 ft 389 kts 269°
2026-04-30 11:17 1.01097 126.87896 19237 ft 394 kts 270°
2026-04-30 11:17 1.01139 126.85142 19872 ft 398 kts 270°
2026-04-30 11:18 1.01191 126.82348 20486 ft 403 kts 270°
2026-04-30 11:18 1.01312 126.76709 21678 ft 411 kts 270°
2026-04-30 11:18 1.01382 126.73848 22209 ft 416 kts 271°
2026-04-30 11:19 1.01455 126.70963 22784 ft 419 kts 271°
2026-04-30 11:19 1.01525 126.68015 23339 ft 423 kts 271°
2026-04-30 11:19 1.01590 126.65099 23819 ft 427 kts 271°
2026-04-30 11:19 1.01655 126.62093 23910 ft 435 kts 271°
2026-04-30 11:20 1.01705 126.58034 23914 ft 441 kts 268°
2026-04-30 11:20 1.01623 126.56111 23912 ft 440 kts 266°
2026-04-30 11:20 1.01423 126.53130 23912 ft 439 kts 265°
2026-04-30 11:20 1.01203 126.50182 23912 ft 438 kts 265°
2026-04-30 11:21 1.00888 126.46062 23912 ft 438 kts 265°
2026-04-30 11:21 1.00733 126.44050 23912 ft 439 kts 265°
2026-04-30 11:21 1.00566 126.41894 23912 ft 439 kts 265°
2026-04-30 11:21 1.00343 126.38948 23912 ft 439 kts 265°
2026-04-30 11:22 1.00219 126.37263 23912 ft 439 kts 265°
2026-04-30 11:22 1.00006 126.34243 23912 ft 439 kts 265°
2026-04-30 11:22 0.99799 126.31214 23912 ft 439 kts 265°
2026-04-30 11:22 0.99529 126.27154 23912 ft 439 kts 265°
2026-04-30 11:23 0.99331 126.24115 23912 ft 439 kts 266°
2026-04-30 11:23 0.99135 126.21057 23912 ft 439 kts 266°
2026-04-30 11:23 0.98813 126.15998 23912 ft 439 kts 266°
2026-04-30 11:24 0.98622 126.12966 23912 ft 439 kts 266°
2026-04-30 11:24 0.98429 126.09895 23912 ft 439 kts 266°
2026-04-30 11:24 0.98237 126.06841 23912 ft 439 kts 266°
2026-04-30 11:25 0.97858 126.00770 23912 ft 439 kts 266°
2026-04-30 11:25 0.97670 125.97755 23913 ft 439 kts 266°
2026-04-30 11:25 0.97290 125.91665 23919 ft 438 kts 266°
2026-04-30 11:26 0.96912 125.85588 23926 ft 438 kts 266°
2026-04-30 11:26 0.96724 125.82568 23930 ft 438 kts 266°
2026-04-30 11:26 0.96533 125.79509 23933 ft 438 kts 266°
2026-04-30 11:27 0.96345 125.76479 23936 ft 438 kts 266°
2026-04-30 11:27 0.96156 125.73440 23939 ft 439 kts 266°
2026-04-30 11:27 0.95966 125.70398 23939 ft 440 kts 266°
2026-04-30 11:27 0.95777 125.67355 23938 ft 440 kts 266°
2026-04-30 11:28 0.95336 125.60281 23939 ft 439 kts 266°
2026-04-30 11:28 0.95208 125.58212 23939 ft 439 kts 266°
2026-04-30 11:28 0.95020 125.55205 23939 ft 439 kts 266°
2026-04-30 11:29 0.94831 125.52165 23939 ft 439 kts 266°
2026-04-30 11:29 0.94578 125.48109 23939 ft 439 kts 266°
2026-04-30 11:29 0.94261 125.43027 23939 ft 439 kts 266°
2026-04-30 11:30 0.93882 125.36945 23939 ft 439 kts 266°
2026-04-30 11:30 0.93630 125.32892 23939 ft 439 kts 266°
2026-04-30 11:30 0.93439 125.29832 23939 ft 439 kts 266°
2026-04-30 11:31 0.93311 125.27787 23939 ft 439 kts 266°
2026-04-30 11:31 0.93061 125.23764 23939 ft 439 kts 266°
2026-04-30 11:31 0.92933 125.21724 23939 ft 439 kts 266°
2026-04-30 11:31 0.92678 125.17638 23939 ft 439 kts 266°
2026-04-30 11:32 0.92491 125.14635 23939 ft 439 kts 266°
2026-04-30 11:32 0.92300 125.11571 23939 ft 439 kts 266°
2026-04-30 11:32 0.92175 125.09570 23939 ft 440 kts 266°
2026-04-30 11:33 0.91786 125.03347 23940 ft 458 kts 266°
2026-04-30 11:33 0.91586 125.00145 23939 ft 466 kts 266°
2026-04-30 11:33 0.91381 124.96864 23938 ft 475 kts 266°
2026-04-30 11:33 0.91174 124.93552 23939 ft 482 kts 266°
2026-04-30 11:34 0.90965 124.90205 23938 ft 488 kts 266°
2026-04-30 11:34 0.90752 124.86797 23936 ft 491 kts 266°
2026-04-30 11:34 0.90541 124.83422 23937 ft 491 kts 266°
2026-04-30 11:34 0.90257 124.78872 23938 ft 490 kts 266°
2026-04-30 11:35 0.90114 124.76586 23939 ft 490 kts 266°
2026-04-30 11:35 0.89831 124.72062 23939 ft 490 kts 266°
2026-04-30 11:35 0.89692 124.69825 23939 ft 490 kts 266°
2026-04-30 11:35 0.89479 124.66424 23939 ft 490 kts 266°
2026-04-30 11:36 0.89267 124.63034 23939 ft 490 kts 266°
2026-04-30 11:36 0.88984 124.58500 23939 ft 491 kts 266°
2026-04-30 11:36 0.88841 124.56218 23939 ft 491 kts 266°
2026-04-30 11:36 0.88559 124.51715 23938 ft 491 kts 266°
2026-04-30 11:37 0.88418 124.49468 23939 ft 491 kts 266°
2026-04-30 11:37 0.88132 124.44895 23939 ft 491 kts 266°
2026-04-30 11:37 0.87991 124.42640 23939 ft 491 kts 266°
2026-04-30 11:37 0.87777 124.39228 23939 ft 491 kts 266°
2026-04-30 11:38 0.87497 124.34746 23939 ft 491 kts 265°
2026-04-30 11:38 0.87352 124.32443 23939 ft 491 kts 265°
2026-04-30 11:38 0.87140 124.29054 23939 ft 491 kts 265°
2026-04-30 11:38 0.86858 124.24541 23938 ft 491 kts 265°
2026-04-30 11:39 0.86714 124.22246 23939 ft 491 kts 265°
2026-04-30 11:39 0.86430 124.17714 23939 ft 491 kts 265°
2026-04-30 11:39 0.86289 124.15473 23939 ft 491 kts 265°
2026-04-30 11:39 0.86075 124.12058 23939 ft 491 kts 265°
2026-04-30 11:40 0.85860 124.08628 23939 ft 491 kts 265°
2026-04-30 11:40 0.85646 124.05215 23939 ft 491 kts 265°
2026-04-30 11:40 0.85362 124.00691 23939 ft 491 kts 265°
2026-04-30 11:40 0.85219 123.98399 23938 ft 491 kts 265°
2026-04-30 11:41 0.84935 123.93867 23939 ft 491 kts 265°
2026-04-30 11:41 0.84723 123.90500 23939 ft 491 kts 265°
2026-04-30 11:41 0.84509 123.87092 23939 ft 491 kts 265°
2026-04-30 11:41 0.84294 123.83664 23939 ft 491 kts 265°
2026-04-30 11:42 0.84154 123.81426 23939 ft 491 kts 265°
2026-04-30 11:42 0.83940 123.78026 23939 ft 491 kts 265°
2026-04-30 11:42 0.83751 123.75013 23929 ft 485 kts 265°
2026-04-30 11:42 0.83545 123.71716 23658 ft 463 kts 265°
2026-04-30 11:43 0.83352 123.68619 23500 ft 439 kts 265°
2026-04-30 11:43 0.83100 123.64608 22555 ft 428 kts 265°
2026-04-30 11:43 0.82978 123.62667 22444 ft 412 kts 265°
2026-04-30 11:43 0.82742 123.58912 22151 ft 404 kts 265°
2026-04-30 11:44 0.82627 123.57072 21978 ft 397 kts 265°
2026-04-30 11:44 0.82457 123.54365 21695 ft 389 kts 265°
2026-04-30 11:44 0.82282 123.51605 21292 ft 401 kts 265°
2026-04-30 11:44 0.82108 123.48838 20633 ft 399 kts 265°
2026-04-30 11:45 0.81938 123.46130 20055 ft 390 kts 265°
2026-04-30 11:45 0.81771 123.43468 19496 ft 381 kts 265°
2026-04-30 11:45 0.81593 123.40852 18941 ft 379 kts 264°
2026-04-30 11:45 0.81126 123.37342 18179 ft 377 kts 257°
2026-04-30 11:46 0.80507 123.34830 17606 ft 368 kts 253°
2026-04-30 11:46 0.79788 123.32381 17079 ft 368 kts 252°
2026-04-30 11:46 0.79289 123.30756 16712 ft 371 kts 252°
2026-04-30 11:46 0.78528 123.28336 16124 ft 363 kts 251°
2026-04-30 11:47 0.77769 123.25953 15587 ft 355 kts 251°
2026-04-30 11:47 0.76777 123.22868 14902 ft 360 kts 251°
2026-04-30 11:47 0.76276 123.21316 14524 ft 355 kts 251°
2026-04-30 11:47 0.75526 123.18998 13982 ft 347 kts 251°
2026-04-30 11:48 0.73859 123.16282 13373 ft 343 kts 219°
2026-04-30 11:48 0.71813 123.15248 13069 ft 325 kts 190°
2026-04-30 11:48 0.70324 123.15174 12865 ft 323 kts 172°
2026-04-30 11:48 0.67478 123.16013 12115 ft 322 kts 157°
2026-04-30 11:49 0.66131 123.16609 11842 ft 316 kts 155°
2026-04-30 11:49 0.63347 123.17724 11305 ft 337 kts 166°
2026-04-30 11:49 0.61784 123.17947 10906 ft 344 kts 178°
2026-04-30 11:49 0.58643 123.17656 10176 ft 333 kts 191°
2026-04-30 11:50 0.56459 123.17152 10001 ft 314 kts 194°
2026-04-30 11:50 0.54416 123.16559 9925 ft 293 kts 198°
2026-04-30 11:50 0.52572 123.15911 9884 ft 273 kts 201°
2026-04-30 11:50 0.51419 123.15403 9849 ft 277 kts 210°
2026-04-30 11:51 0.49209 123.13966 9439 ft 285 kts 213°
2026-04-30 11:51 0.47560 123.12855 9178 ft 283 kts 214°
2026-04-30 11:51 0.45948 123.11746 8935 ft 284 kts 214°
2026-04-30 11:51 0.44315 123.10626 8685 ft 283 kts 214°
2026-04-30 11:52 0.43253 123.09901 8521 ft 282 kts 214°
2026-04-30 11:52 0.41094 123.08430 8185 ft 280 kts 214°
2026-04-30 11:52 0.39497 123.07312 7928 ft 280 kts 221°
2026-04-30 11:52 0.38355 123.05777 7661 ft 278 kts 249°
2026-04-30 11:53 0.38027 123.03884 7419 ft 277 kts 275°
2026-04-30 11:53 0.38466 123.02043 7197 ft 276 kts 293°
2026-04-30 11:53 0.39047 123.00887 7032 ft 275 kts 303°
2026-04-30 11:53 0.40671 122.98980 6673 ft 266 kts 329°
2026-04-30 11:54 0.42410 122.98463 6428 ft 267 kts
2026-04-30 11:54 0.44135 122.99020 6210 ft 263 kts 36°
2026-04-30 11:54 0.45430 123.00234 5894 ft 253 kts 54°
2026-04-30 11:54 0.46320 123.01733 5437 ft 250 kts 65°
2026-04-30 11:55 0.46989 123.03319 5024 ft 246 kts 69°
2026-04-30 11:55 0.47624 123.04881 4970 ft 243 kts 63°
2026-04-30 11:55 0.48639 123.06214 5006 ft 240 kts 42°
2026-04-30 11:55 0.49968 123.07214 4939 ft 240 kts 34°
2026-04-30 11:56 0.51407 123.08079 4619 ft 239 kts 28°
2026-04-30 11:56 0.53006 123.08442 4160 ft 241 kts 359°
2026-04-30 11:56 0.54646 123.08244 3784 ft 238 kts 351°
2026-04-30 11:56 0.56276 123.07932 3541 ft 237 kts 351°
2026-04-30 11:57 0.57870 123.07614 3450 ft 231 kts 351°
2026-04-30 11:57 0.59364 123.07069 3289 ft 231 kts 326°
2026-04-30 11:57 0.60437 123.05898 3128 ft 232 kts 302°
2026-04-30 11:57 0.61077 123.04397 2913 ft 233 kts 285°
2026-04-30 11:58 0.61406 123.02839 2777 ft 231 kts 279°
2026-04-30 11:58 0.61635 123.01239 2706 ft 230 kts 277°
2026-04-30 11:58 0.61838 122.99644 2664 ft 233 kts 277°
2026-04-30 11:58 0.62041 122.98041 2391 ft 228 kts 277°
2026-04-30 11:59 0.62241 122.96475 2185 ft 225 kts 277°
2026-04-30 11:59 0.62431 122.94990 1879 ft 202 kts 277°
2026-04-30 11:59 0.62597 122.93689 1668 ft 177 kts 277°
2026-04-30 11:59 0.62750 122.92495 1505 ft 170 kts 277°
2026-04-30 12:00 0.62897 122.91348 1218 ft 164 kts 277°
2026-04-30 12:00 0.63039 122.90235 991 ft 163 kts 277°
2026-04-30 12:00 0.63184 122.89103 769 ft 163 kts 277°
2026-04-30 12:00 0.63319 122.87990 554 ft 163 kts 276°
2026-04-30 12:01 0.63456 122.86855 322 ft 162 kts 278°
2026-04-30 12:01 0.63611 122.85754 143 ft 156 kts 277°
2026-04-30 12:01 0.63725 122.84835 134 ft 98 kts 277°
2026-04-30 12:01 0.63784 122.84358 133 ft 33 kts 276°
2026-04-30 12:02 0.63802 122.84194 133 ft 15 kts 271°
2026-04-30 12:02 0.63799 122.84145 133 ft 0 kts 281°
2026-04-30 12:02 0.63806 122.84141 133 ft 0 kts 358°
2026-04-30 12:02 0.63814 122.84150 133 ft 3 kts 90°
2026-04-30 12:03 0.63807 122.84189 133 ft 12 kts 99°
2026-04-30 12:03 0.63880 122.84339 133 ft 10 kts
2026-04-30 12:03 0.63947 122.84351 133 ft 4 kts 32°
2026-04-30 12:04 0.63953 122.84370 133 ft 1 kts 85°
2026-04-30 12:04 0.63953 122.84382 133 ft 3 kts 96°
2026-04-30 12:04 0.63947 122.84428 133 ft 7 kts 97°
2026-04-30 12:04 0.63953 122.84457 133 ft 3 kts 24°
2026-04-30 12:05 0.63972 122.84463 133 ft 2 kts 11°
2026-04-30 12:05 0.63987 122.84465 133 ft 1 kts
2026-04-30 12:05 0.64002 122.84467 133 ft 1 kts
2026-04-30 12:05 0.64007 122.84468 133 ft 0 kts